Showing default

JILIN-01 GAOFEN 3D 28, 52445

Orbit data source: Space-Track

JILIN-01 GAOFEN 3D 28, 52445 is a payload satellite owned by Changguang WJ (CN) in SSO that was launched on Thu, 05 May 2022 UTC via a CHANG ZHENG 2D launch vehicle from the Taiyaun Space Center, China (TSC). Payload-class satellites include a variety of spacecraft equipped with specific instruments for various scientific and technological missions. These include communications satellites like Starlink; space stations such as the ISS; scientific satellites like the Hubble; Earth observation satellites from companies like Planet Labs, Umbra, and HawkEye 360; GPS; miniature CubeSats for education and research; and military/defense satellites.

Not visible in the next 10 days
Identifier
52445, 2022-048C
Orbit
SSO
Country
Flag of CNCN / PRC
Related business
Manufacturer
Changguang WJ
Mission
Operational Commercial Imaging
Bus & Motor
JL-1, Unknown motor
Mass
42 kg wet, 42 kg dry
Launch date (UTC)
2022-05-05 (4 years ago)
Launch vehicle
CHANG ZHENG 2D
Launch site
Taiyaun Space Center, China (TSC)
Object type
Payload
Rocket body
Debris
Shape & HBR
Box + 2 Pan, 0.8 m
Radar Cross Section
2.000 m², Medium (>0.1 m² and < 1m²)

Expand to show TLE details & history
Last TLE update: 6 hours ago

TLE from 6 hours ago
0 JILIN-01 GAOFEN 3D 28
1 52445U 22048C   26163.84197139  .00140100  00000-0  84487-3 0  9996
2 52445  97.5641 277.5192 0000863 152.6057 207.5254 15.77261312228844
Epoch: 2026-06-12T20:12Z
TLE epoch observation values (Epoch: 2026-06-12T20:12:26.328Z)
Latitude
-0.00001°
Longitude
73.24388°
Altitude
341.881 km
Speed
7.703 km/s
True Right ascension
18h 30m 04s
True Declination
0° 00' 00"
Sunlit
Object was in full shadow at epoch
Visualization orbit readout
Latitude
Unknown
Longitude
Unknown
Altitude
Unknown
Speed
Unknown
Apparent Right ascension
Unknown
Apparent Declination
Unknown
Sunlit
N/A
Visualization observer readout
Local Sidereal Time
12:46:31
Azimuth
Unknown
Elevation
Unknown
Doppler factor
Unknown
Orbital elements
Apogee altitude
335.68 km
Perigee altitude
334.522 km
Semi-major axis
6,713.238 km
Eccentricity
0.00009
Inclination
97.5641°
RAAN
277.5192°
Arg. of periapsis
152.6057°
True anomaly
207.52083°
Mean anomaly
207.5254°
Eccentric anomaly
207.52312°
Mean motion
3.94589 °/min
Orbital period
91.23 mins
BSTAR
0.00084487
Loading maneuver chart data...
Computing Atmospheric mass density...
Loading historical data...
Loading historical data...
Loading historical data...
Loading historical data...
Loading historical data...
Loading historical data...
Loading historical data...

Documentation

Showing up to 5 results
|